AirNav   Air Wisconsin pilot careers
 
 1573 users online  

4CL8 Hanford Community Medical Center Helistop
Hanford, California, USA

GOING TO HANFORD?


FAA INFORMATION EFFECTIVE 07 DECEMBER 2017

Location

FAA Identifier: 4CL8
Lat/Long: 36-19-47.2000N / 119-39-34.4000W
36-19.786667N / 119-39.573333W
36.3297778 / -119.6595556
(estimated)
Elevation: 251 ft. / 77 m (estimated)
Variation: 15E (1990)
Time zone: UTC -8 (UTC -7 during Daylight Saving Time)
Zip code: 93230

Heliport Operations

Heliport use: Private use. Permission required prior to landing
Activation date: 05/1993
Control tower: no
ARTCC: OAKLAND CENTER
FSS: RANCHO MURIETA FLIGHT SERVICE STATION
Attendance: CONTINUOUS
Wind indicator: yes
Segmented circle: no
Lights: FOR PERIMETER LGTS CALL 209-582-9000.

Heliport Communications

WX ASOS at HJO (1.7 nm SE): 134.75 (559-585-8076)
WX AWOS-3PT at VIS (13 nm E): 119.925 (559-651-2418)
WX AWOS-3 at NLC (14 nm W): 121.575 (559-998-2336)
WX AWOS-3PT at TLR (19 nm SE): 120.0 (559-686-2613)

Nearby radio navigation aids

VOR radial/distance  VOR name  Freq  Var
VISr239/8.9VISALIA VOR/DME109.4016E
CZQr152/34.1CLOVIS VORTAC112.9015E
TTEr293/39.8TULE VOR/DME109.2016E

 
NDB name  Hdg/Dist  Freq  Var  ID
SALYER FARMS323/17.020516ECOR -.-. --- .-.

Heliport Services

Runway Information

Helipad H1

Dimensions: 55 x 55 ft. / 17 x 17 m
Surface: concrete, in good condition
Runway edge lights: PERIMETER LGTS.
Latitude: 36-19.786667N
Longitude: 119-39.573333W
Elevation: 251.0 ft.
Traffic pattern: leftleft

Heliport Ownership and Management from official FAA records

Ownership: Privately-owned
Owner: HANFORD COMMUNITY MEDICAL CTR
450 GREENFIELD AVE
HANFORD, CA 93232
Phone 559-469-7484
Manager: RICHARD ROSE
450 GREENFIELD AVE
HANFORD, CA 93230
Phone 559-585-5413
ADDITIONAL CONTACT - STEVEN LOEWEN - 559-573-6641

Instrument Procedures

There are no published instrument procedures at 4CL8.

Some nearby airports with instrument procedures:

KHJO - Hanford Municipal Airport (2 nm SE)
KVIS - Visalia Municipal Airport (13 nm E)
KNLC - Lemoore Naval Air Station (Reeves Field) (14 nm W)
KTLR - Mefford Field Airport (19 nm SE)
KFCH - Fresno Chandler Executive Airport (25 nm N)
 
Loc | Ops | Rwys | IFR | FBO | Links
Com | Nav | Svcs | Stats | Notes


 
Area around 4CL8 (Hanford Community Medical Center Helistop)
 
Road maps at: MapQuest Bing Google
 
Aerial photo
No photo
 
Sectional chart

 
Airport distance calculator
Flying to Hanford Community Medical Center Helistop? Find the distance to fly.

From to 4CL8

Sunrise and sunset
Times for 11-Dec-2017
 Local
(UTC-8)
 Zulu
(UTC)
Morning civil twilight06:3214:32
Sunrise07:0115:01
Sunset16:4300:43
Evening civil twilight17:1101:11

Current date and time
Zulu (UTC)  11-Dec-2017 18:22:03
Local (UTC-8)  11-Dec-2017 10:22:03
 
METAR
KHJO 
2nm E 
111753Z AUTO 00000KT 2 1/2SM HZ CLR 08/03 A3037 RMK AO2 SLP288 T00830028 10083 21011 51015
KVIS 
13nm E 
111756Z AUTO 13003KT 2 1/2SM HZ CLR 08/03 A3037 RMK AO2 SLP294 T00780028 10078 21011 51015
KNLC 
14nm W 
111656Z 00000KT 5SM HZ BKN200 04/M02 A3036 RMK AO2 SLPNO RH/62 T00441022 $
TAF
KVIS 
13nm E 
111743Z 1118/1218 VRB03KT 4SM HZ SCT250
KNLC 
14nm W 
1115/1215 VRB06KT 8000 HZ SCT250 QNH3023INS TEMPO 1115/1117 3200 BR FM112200 VRB06KT 9000 HZ SCT250 QNH3025INS TEMPO 1207/1215 4800 BR T17/1123Z T02/1214Z FS30037
NOTAMs
Click for the latest NOTAMs
NOTAMs are issued by the DoD/FAA and will open in a separate window not controlled by AirNav.

 

 
 

Would you like to see your business listed on this page?

 If your business provides an interesting product or service to pilots, flight crews, aircraft, or users of the Hanford Community Medical Center Helistop, you should consider listing it here.  To start the listing process, click on the button below
 
Add a business
 

Other Pages about Hanford Community Medical Center Helistop

Update a link
 
Copyright © AirNav, LLC. All rights reserved. Privacy Policy  Contact